Location: Hilton Head Island
(32.2163°N, 80.7526°W)
Time: 16:32:18
(UTC-05:00)

Explorer 11/Cluster Stage 4 - Pass Details

Date: 19 February 2026
Orbit: 463 x 1176 km, 28.8° (Epoch: 6 March)

Event Time Altitude Azimuth Distance (km) Brightness Sun altitude
Rises 16:16:56 0° 268° (W) 2,539 10.3 22.0°
Reaches altitude 10° 16:19:19 10° 258° (WSW) 1,619 9.9 21.5°
Maximum altitude 16:22:34 31° 194° (SSW) 821 7.6 20.9°
Drops below altitude 10° 16:25:49 10° 129° (SE) 1,615 8.1 20.3°
Sets 16:28:11 0° 119° (ESE) 2,531 8.9 19.9°
